User: anonymous   Login
Location: Peebles
(55.6412°N, 3.1714°W)
Time: 03:09:05
(UTC+00:00)
Language:

SeaSat 1 - Orbit

View from above orbital plane
View from above orbital plane
View from above satellite
View from above satellite

Ground track
Ground track

The orbit data is extracted from the following two-line orbital elements,

1 10967U 78064A   21333.82317468  .00000005  00000-0  41448-4 0  9999
2 10967 107.9943  99.1120 0002739 247.9893 112.0961 14.43915374281061
Epoch (UTC): 29 November 2021 19:45:22
Eccentricity: 0.0002739
inclination: 107.9943°
perigee height: 743 km
apogee height: 747 km
right ascension of ascending node: 99.1120°
argument of perigee: 247.9893°
revolutions per day: 14.43915374
mean anomaly at epoch: 112.0961°
orbit number at epoch: 28106

The dashed part of the orbit path shows where the satellite is in the earth's shadow,  

DLR